Time,TemperatureF,DewpointF,PressureIn,WindDirection,WindDirectionDegrees,WindSpeedMPH,WindSpeedGustMPH,Humidity,HourlyPrecipIn,Conditions,Clouds,dailyrainin,SoftwareType,DateUTC
2013-05-25 00:01:00,53.0,27.0,-100.00,South,176,8.0,14.0,36,-99.99,,,-99.99,,2013-05-25 07:01:00,
2013-05-25 00:11:00,52.0,27.0,-100.00,SSW,196,6.0,9.0,38,-99.99,,,-99.99,,2013-05-25 07:11:00,
2013-05-25 00:21:00,50.0,28.0,-100.00,SSW,205,4.0,7.0,41,-99.99,,,-99.99,,2013-05-25 07:21:00,
2013-05-25 00:31:00,49.0,28.0,-100.00,North,4,2.0,4.0,43,-99.99,,,-99.99,,2013-05-25 07:31:00,
2013-05-25 00:42:00,49.0,28.0,-100.00,North,4,2.0,4.0,43,-99.99,,,-99.99,,2013-05-25 07:42:00,
2013-05-25 00:52:00,48.0,28.0,-100.00,NNE,31,3.0,5.0,46,-99.99,,,-99.99,,2013-05-25 07:52:00,
2013-05-25 01:02:00,47.0,27.0,-100.00,NE,41,4.0,6.0,45,-99.99,,,-99.99,,2013-05-25 08:02:00,
2013-05-25 01:11:00,50.0,26.0,-100.00,East,83,5.0,7.0,39,-99.99,,,-99.99,,2013-05-25 08:11:00,
2013-05-25 01:22:00,52.0,26.0,-100.00,East,85,6.0,9.0,37,-99.99,,,-99.99,,2013-05-25 08:22:00,
2013-05-25 01:32:00,50.0,27.0,-100.00,East,93,4.0,7.0,40,-99.99,,,-99.99,,2013-05-25 08:32:00,
2013-05-25 01:42:00,50.0,27.0,-100.00,East,93,4.0,7.0,40,-99.99,,,-99.99,,2013-05-25 08:42:00,
2013-05-25 01:51:00,51.0,25.0,-100.00,ENE,65,5.0,7.0,35,-99.99,,,-99.99,,2013-05-25 08:51:00,
2013-05-25 02:01:00,51.0,25.0,-100.00,ENE,65,5.0,7.0,35,-99.99,,,-99.99,,2013-05-25 09:01:00,
2013-05-25 02:11:00,52.0,24.0,-100.00,ENE,58,4.0,7.0,33,-99.99,,,-99.99,,2013-05-25 09:11:00,
2013-05-25 02:21:00,52.0,24.0,-100.00,ENE,61,4.0,9.0,33,-99.99,,,-99.99,,2013-05-25 09:21:00,
2013-05-25 02:33:00,51.0,24.0,-100.00,East,80,3.0,8.0,34,-99.99,,,-99.99,,2013-05-25 09:33:00,
2013-05-25 02:42:00,51.0,24.0,-100.00,East,80,3.0,8.0,34,-99.99,,,-99.99,,2013-05-25 09:42:00,
2013-05-25 02:53:00,49.0,28.0,-100.00,East,100,1.0,3.0,44,-99.99,,,-99.99,,2013-05-25 09:53:00,
2013-05-25 03:02:00,49.0,28.0,-100.00,East,100,1.0,3.0,44,-99.99,,,-99.99,,2013-05-25 10:02:00,
2013-05-25 03:12:00,49.0,28.0,-100.00,East,100,1.0,3.0,44,-99.99,,,-99.99,,2013-05-25 10:12:00,
2013-05-25 03:22:00,50.0,28.0,-100.00,SSW,196,6.0,9.0,42,-99.99,,,-99.99,,2013-05-25 10:22:00,
2013-05-25 03:32:00,52.0,27.0,-100.00,South,178,8.0,13.0,37,-99.99,,,-99.99,,2013-05-25 10:32:00,
2013-05-25 03:42:00,52.0,27.0,-100.00,South,178,8.0,13.0,37,-99.99,,,-99.99,,2013-05-25 10:42:00,
2013-05-25 03:52:00,51.0,26.0,-100.00,SSE,164,6.0,11.0,38,-99.99,,,-99.99,,2013-05-25 10:52:00,
2013-05-25 04:02:00,51.0,26.0,-100.00,SSE,164,6.0,11.0,38,-99.99,,,-99.99,,2013-05-25 11:02:00,
2013-05-25 04:12:00,51.0,26.0,-100.00,SSE,164,6.0,11.0,38,-99.99,,,-99.99,,2013-05-25 11:12:00,
2013-05-25 04:21:00,50.0,29.0,-100.00,South,174,5.0,9.0,45,-99.99,,,-99.99,,2013-05-25 11:21:00,
2013-05-25 04:32:00,50.0,29.0,-100.00,South,174,5.0,9.0,45,-99.99,,,-99.99,,2013-05-25 11:32:00,
2013-05-25 04:41:00,43.0,28.0,-100.00,WSW,254,3.0,6.0,55,-99.99,,,-99.99,,2013-05-25 11:41:00,
2013-05-25 04:52:00,43.0,28.0,-100.00,WSW,254,3.0,6.0,55,-99.99,,,-99.99,,2013-05-25 11:52:00,
2013-05-25 05:01:00,44.0,28.0,-100.00,SW,233,2.0,4.0,53,-99.99,,,-99.99,,2013-05-25 12:01:00,
2013-05-25 05:12:00,44.0,28.0,-100.00,SW,233,2.0,4.0,53,-99.99,,,-99.99,,2013-05-25 12:12:00,
2013-05-25 05:21:00,43.0,27.0,-100.00,NE,49,2.0,4.0,53,-99.99,,,-99.99,,2013-05-25 12:21:00,
2013-05-25 05:32:00,43.0,27.0,-100.00,NE,49,2.0,4.0,53,-99.99,,,-99.99,,2013-05-25 12:32:00,
2013-05-25 05:42:00,42.0,28.0,-100.00,NNE,30,1.0,2.0,57,-99.99,,,-99.99,,2013-05-25 12:42:00,
2013-05-25 05:52:00,42.0,28.0,-100.00,NNE,30,1.0,2.0,57,-99.99,,,-99.99,,2013-05-25 12:52:00,
2013-05-25 06:02:00,42.0,29.0,-100.00,ESE,104,0.0,2.0,60,-99.99,,,-99.99,,2013-05-25 13:02:00,
2013-05-25 06:11:00,42.0,29.0,-100.00,ESE,104,0.0,2.0,60,-99.99,,,-99.99,,2013-05-25 13:11:00,
2013-05-25 06:21:00,41.0,29.0,-100.00,East,95,1.0,3.0,62,-99.99,,,-99.99,,2013-05-25 13:21:00,
2013-05-25 06:32:00,40.0,32.0,-100.00,SSE,151,1.0,3.0,73,-99.99,,,-99.99,,2013-05-25 13:32:00,
2013-05-25 06:52:00,41.0,30.0,-100.00,SE,133,3.0,6.0,64,-99.99,,,-99.99,,2013-05-25 13:52:00,
2013-05-25 07:02:00,41.0,31.0,-100.00,SSE,162,1.0,2.0,67,-99.99,,,-99.99,,2013-05-25 14:02:00,
2013-05-25 07:11:00,43.0,31.0,-100.00,SE,143,1.0,3.0,63,-99.99,,,-99.99,,2013-05-25 14:11:00,
2013-05-25 07:22:00,44.0,33.0,-100.00,SSE,147,1.0,3.0,66,-99.99,,,-99.99,,2013-05-25 14:22:00,
2013-05-25 07:32:00,46.0,29.0,-100.00,SSE,147,0.0,3.0,52,-99.99,,,-99.99,,2013-05-25 14:32:00,
2013-05-25 07:41:00,48.0,29.0,-100.00,NNE,13,0.0,2.0,47,-99.99,,,-99.99,,2013-05-25 14:41:00,
2013-05-25 07:52:00,46.0,33.0,-100.00,WNW,288,2.0,4.0,61,-99.99,,,-99.99,,2013-05-25 14:52:00,
2013-05-25 08:01:00,46.0,34.0,-100.00,WNW,285,2.0,4.0,61,-99.99,,,-99.99,,2013-05-25 15:01:00,
2013-05-25 08:11:00,48.0,33.0,-100.00,WNW,289,2.0,4.0,55,-99.99,,,-99.99,,2013-05-25 15:11:00,
2013-05-25 08:22:00,48.0,32.0,-100.00,West,260,1.0,3.0,53,-99.99,,,-99.99,,2013-05-25 15:22:00,
2013-05-25 08:33:00,51.0,28.0,-100.00,WSW,239,2.0,4.0,40,-99.99,,,-99.99,,2013-05-25 15:33:00,
2013-05-25 08:43:00,51.0,28.0,-100.00,WSW,239,2.0,4.0,40,-99.99,,,-99.99,,2013-05-25 15:43:00,
2013-05-25 08:53:00,53.0,29.0,-100.00,NNW,336,1.0,3.0,40,-99.99,,,-99.99,,2013-05-25 15:53:00,
2013-05-25 09:03:00,53.0,29.0,-100.00,NNW,333,1.0,4.0,39,-99.99,,,-99.99,,2013-05-25 16:03:00,
2013-05-25 09:12:00,53.0,29.0,-100.00,NNW,333,1.0,4.0,39,-99.99,,,-99.99,,2013-05-25 16:12:00,
2013-05-25 21:52:00,58.0,28.0,-100.00,ESE,112,13.0,20.0,31,-99.99,,,-99.99,,2013-05-26 04:52:00,
2013-05-25 22:02:00,58.0,28.0,-100.00,ESE,112,13.0,20.0,31,-99.99,,,-99.99,,2013-05-26 05:02:00,
2013-05-25 22:12:00,57.0,27.0,-100.00,ESE,120,13.0,21.0,32,-99.99,,,-99.99,,2013-05-26 05:12:00,
2013-05-25 22:22:00,56.0,27.0,-100.00,SE,124,12.0,19.0,32,-99.99,,,-99.99,,2013-05-26 05:22:00,
2013-05-25 22:32:00,56.0,27.0,-100.00,SE,136,8.0,17.0,33,-99.99,,,-99.99,,2013-05-26 05:32:00,
2013-05-25 22:42:00,56.0,27.0,-100.00,SE,136,8.0,17.0,33,-99.99,,,-99.99,,2013-05-26 05:42:00,
2013-05-25 22:52:00,55.0,28.0,-100.00,SE,127,11.0,21.0,35,-99.99,,,-99.99,,2013-05-26 05:52:00,
2013-05-25 23:01:00,55.0,28.0,-100.00,SE,127,11.0,21.0,35,-99.99,,,-99.99,,2013-05-26 06:01:00,
2013-05-25 23:11:00,55.0,28.0,-100.00,SE,127,11.0,21.0,35,-99.99,,,-99.99,,2013-05-26 06:11:00,
2013-05-25 23:21:00,55.0,29.0,-100.00,SE,127,11.0,19.0,37,-99.99,,,-99.99,,2013-05-26 06:21:00,
2013-05-25 23:32:00,55.0,26.0,-100.00,South,176,9.0,17.0,33,-99.99,,,-99.99,,2013-05-26 06:32:00,
2013-05-25 23:41:00,55.0,26.0,-100.00,South,176,9.0,17.0,33,-99.99,,,-99.99,,2013-05-26 06:41:00,
2013-05-25 23:52:00,55.0,26.0,-100.00,South,176,9.0,17.0,33,-99.99,,,-99.99,,2013-05-26 06:52:00,